This demonstration page uses our WeatherBlox Daily Observations layout. Learn more.

Left ArrowRight Arrow

40.92501, -98.34201

Hourly Observations for August 14, 2022

Temp ( °F °C ) Dew Point ( °F °C ) Humidity (%) Winds ( mph kmh ) Pressure ( in mb ) Visibility ( mi km ) Precip ( " mm )
12:53 am 00:53 Clear 73 22.8 66 18.9 79 79 E 8 13 30.01 1016 10 16 0.00 0.00
1:53 am 01:53 Clear 72 22.2 66 18.9 82 82 ESE 6 9 30.00 1016 10 16 0.00 0.00
2:53 am 02:53 Clear 70 21.1 66 18.9 87 87 ESE 5 7 30.00 1016 10 16 0.00 0.00
3:53 am 03:53 Clear 68 20 65 18.3 90 90 NE 6 9 30.01 1016 8 13 0.00 0.00
4:53 am 04:53 Clear 67 19.4 64 17.8 90 90 E 5 7 30.00 1016 8 13 0.00 0.00
5:53 am 05:53 Clear 68 20 65 18.3 90 90 SE 3 6 30.00 1016 8 13 0.00 0.00
6:53 am 06:53 Partly Cloudy with Mist and Fog 67 19.4 64 17.8 90 90 ENE 6 9 30.01 1016 5 8 0.00 0.00
7:53 am 07:53 Partly Cloudy with Mist and Fog 68 20 65 18.3 90 90 E 7 11 30.02 1017 7 11 0.00 0.00
8:28 am 08:28 Partly Cloudy with Mist and Fog 70 21.1 65 18.3 84 84 ENE 7 11 29.99 1016 9 14 0.00 0.00
8:53 am 08:53 Partly Cloudy with Mist and Fog 70 21.1 65 18.3 84 84 E 10 17 30.03 1017 10 16 0.00 0.00
9:01 am 09:01 Mostly Cloudy with Mist and Fog 71 21.7 65 18.3 81 81 E 9 15 29.99 1016 10 16 0.00 0.00
9:11 am 09:11 Partly Cloudy with Mist and Fog 73 22.8 65 18.3 76 76 E 12 19 29.99 1016 10 16 0.00 0.00
9:53 am 09:53 Partly Cloudy with Mist and Fog 73 22.8 64 17.8 73 73 ESE 10 17 30.03 1017 10 16 0.00 0.00
10:53 am 10:53 Sunny 77 25 64 17.8 64 64 ESE 13 20 30.02 1017 10 16 0.00 0.00
11:53 am 11:53 Sunny 80 26.7 65 18.3 60 60 E 12 19 30.01 1016 10 16 0.00 0.00
12:53 pm 12:53 Sunny 82 27.8 66 18.9 58 58 ESE 14 22 29.99 1016 10 16 0.00 0.00
1:53 pm 13:53 Sunny 85 29.4 67 19.4 55 55 E 12 19 29.98 1015 10 16 0.00 0.00
2:53 pm 14:53 Sunny 86 30 67 19.4 53 53 ESE 15 24 29.97 1015 10 16 0.00 0.00
3:53 pm 15:53 Sunny 87 30.6 67 19.4 51 51 ESE 13 20 29.96 1015 10 16 0.00 0.00
4:53 pm 16:53 Sunny 88 31.1 67 19.4 50 50 ESE 13 20 29.95 1014 10 16 0.00 0.00
5:53 pm 17:53 Sunny 88 31.1 67 19.4 50 50 E 15 24 29.95 1014 10 16 0.00 0.00
6:53 pm 18:53 Sunny 84 28.9 66 18.9 55 55 E 15 24 29.95 1014 10 16 0.00 0.00
7:53 pm 19:53 Sunny 80 26.7 66 18.9 62 62 E 15 24 29.94 1014 10 16 0.00 0.00
8:53 pm 20:53 Clear 77 25 63 17.2 62 62 E 14 22 29.93 1014 10 16 0.00 0.00
9:53 pm 21:53 Clear 75 23.9 63 17.2 66 66 E 15 24 29.95 1014 10 16 0.00 0.00
10:53 pm 22:53 Clear 73 22.8 63 17.2 71 71 E 13 20 29.96 1015 10 16 0.00 0.00
11:53 pm 23:53 Cloudy with Light Rain 72 22.2 63 17.2 73 73 ESE 10 17 29.95 1014 10 16 0.01 0.13

Powered by AerisWeather